WC1H Weather Reports


Display with metric or nautical units.
time (UTC)temp
F
wind
direction
speed
MPH
gust
MPH
rain 1hr
in
rain 24hr
in
rain mn
in
humidity
%
barometer
mb
20260507191134 67 47 0.0 6.0 0.00 0.21 0.14 27 1004.6
20260507190634 68 56 0.0 4.0 0.00 0.21 0.14 28 1004.6
20260507190135 68 94 0.0 4.0 0.00 0.21 0.14 28 1004.7
20260507185636 68 27 0.0 4.0 0.00 0.21 0.14 28 1004.7
20260507185134 68 104 0.0 7.0 0.00 0.21 0.14 28 1004.7
20260507184636 67 245 0.0 8.0 0.00 0.21 0.14 29 1004.9
20260507184632 67 267 0.0 3.0 0.00 0.21 0.14 29 1004.9
20260507183633 66 63 0.0 1.0 0.00 0.21 0.14 29 1004.9
20260507183629 66 286 0.0 1.0 0.00 0.21 0.14 29 1005.0
20260507182628 66 205 0.0 1.0 0.00 0.21 0.14 31 1005.0
20260507182126 66 44 0.0 1.0 0.00 0.21 0.14 31 1005.0
20260507181625 66 354 0.0 0.0 0.00 0.21 0.14 34 1005.0
20260507181123 65 39 0.0 3.0 0.00 0.21 0.14 34 1005.2
20260507180626 66 151 0.0 6.0 0.00 0.21 0.14 34 1005.3
20260507180622 66 231 0.0 3.0 0.00 0.21 0.14 33 1005.2
20260507175622 66 328 0.0 6.0 0.00 0.21 0.14 34 1005.3
20260507175120 66 326 0.0 0.0 0.00 0.21 0.14 36 1005.2
20260507174625 65 113 0.0 2.0 0.00 0.21 0.14 37 1005.2
20260507174621 66 52 0.0 2.0 0.00 0.21 0.14 37 1005.1
20260507173621 65 307 0.0 3.0 0.00 0.21 0.14 39 1005.2
20260507173120 65 343 0.0 3.0 0.00 0.21 0.14 41 1005.1
20260507172620 65 69 0.0 1.0 0.00 0.21 0.14 43 1005.3
20260507172120 65 297 0.0 7.0 0.00 0.21 0.14 43 1005.2
20260507171622 64 127 0.0 3.0 0.00 0.21 0.14 42 1005.3
20260507171618 64 18 0.0 7.0 0.00 0.21 0.14 42 1005.3
20260507170618 64 226 0.0 1.0 0.00 0.21 0.14 45 1005.3
20260507170117 64 75 0.0 1.0 0.00 0.21 0.14 45 1005.4
20260507165620 64 339 0.0 0.0 0.00 0.21 0.14 46 1005.4
20260507165616 64 281 0.0 1.0 0.00 0.21 0.14 45 1005.6
20260507164616 65 323 0.0 1.0 0.00 0.21 0.14 45 1005.6
20260507164117 65 314 0.0 1.0 0.00 0.21 0.14 46 1005.6
20260507163616 64 60 0.0 0.0 0.00 0.21 0.14 48 1005.6
20260507163116 64 357 0.0 0.0 0.00 0.21 0.14 48 1005.7
20260507162621 64 336 0.0 0.0 0.00 0.21 0.14 48 1005.8
20260507162617 64 138 0.0 0.0 0.00 0.21 0.14 47 1005.9
20260507162220 64 357 0.0 1.0 0.00 0.21 0.14 46 1005.9
20260507161115 63 144 0.0 1.0 0.00 0.21 0.14 49 1005.9
20260507160614 63 350 0.0 1.0 0.00 0.21 0.14 49 1006.1
20260507160117 63 221 0.0 1.0 0.00 0.21 0.14 48 1006.2
20260507160112 63 128 0.0 1.0 0.00 0.21 0.14 48 1006.1
20260507155716 64 2 0.0 1.0 0.00 0.21 0.14 47 1006.2
20260507154613 64 68 0.0 0.0 0.00 0.21 0.14 47 1006.2
20260507154111 63 321 0.0 0.0 0.00 0.21 0.14 50 1006.3
20260507153612 63 51 0.0 0.0 0.00 0.21 0.14 47 1006.3
20260507153116 62 55 0.0 0.0 0.00 0.21 0.14 47 1006.4
20260507153112 63 271 0.0 0.0 0.00 0.21 0.14 49 1006.3
20260507152112 62 68 0.0 1.0 0.00 0.21 0.14 48 1006.5
20260507152108 62 229 0.0 1.0 0.00 0.21 0.14 48 1006.5
20260507151107 63 288 0.0 1.0 0.00 0.21 0.14 45 1006.5
20260507150608 63 316 0.0 1.0 0.00 0.21 0.14 45 1006.5
20260507150108 62 8 0.0 1.0 0.00 0.21 0.14 46 1006.6
20260507145609 61 252 0.0 3.0 0.00 0.21 0.14 49 1006.6
20260507145108 62 73 0.0 3.0 0.00 0.21 0.14 47 1006.7
20260507144608 62 127 0.0 1.0 0.00 0.21 0.14 48 1006.7
20260507144108 62 346 0.0 2.0 0.00 0.21 0.14 49 1006.9
20260507143612 60 53 0.0 0.0 0.00 0.21 0.14 51 1006.8
20260507143608 61 339 0.0 2.0 0.00 0.21 0.14 50 1006.8
20260507143211 60 250 0.0 0.0 0.00 0.21 0.14 53 1006.9
20260507142110 60 264 0.0 3.0 0.00 0.21 0.14 52 1006.9
20260507142106 60 300 0.0 3.0 0.00 0.21 0.14 53 1006.9
20260507141106 60 76 0.0 3.0 0.00 0.21 0.14 56 1006.8
20260507140605 59 98 0.0 3.0 0.00 0.21 0.14 56 1006.9
20260507140107 59 191 0.0 1.0 0.00 0.21 0.14 55 1006.9
20260507135606 59 294 0.0 1.0 0.00 0.21 0.14 56 1006.9
20260507135107 58 229 0.0 5.0 0.00 0.21 0.14 57 1006.8
20260507134606 58 316 0.0 5.0 0.00 0.21 0.14 58 1006.8
20260507134110 58 39 0.0 2.0 0.00 0.21 0.14 59 1006.9
20260507134105 58 269 0.0 2.0 0.00 0.21 0.14 58 1006.9
20260507133104 57 122 0.0 2.0 0.00 0.21 0.14 61 1006.9
20260507132604 57 89 0.0 4.0 0.00 0.21 0.14 62 1006.9
20260507132104 56 60 0.0 6.0 0.00 0.21 0.14 63 1007.1
20260507131605 56 319 1.0 6.0 0.00 0.21 0.14 66 1007.1
20260507131103 56 103 1.0 7.0 0.00 0.21 0.14 67 1007.1
20260507130604 55 269 1.0 7.0 0.00 0.21 0.14 69 1007.1
20260507125607 54 101 0.0 0.0 0.00 0.21 0.14 69 1007.4
20260507125603 54 240 0.0 3.0 0.00 0.21 0.14 70 1007.3
20260507125206 53 68 0.0 0.0 0.00 0.21 0.14 66 1007.3
20260507124100 53 100 0.0 3.0 0.00 0.21 0.14 60 1007.3
20260507123559 52 306 0.0 3.0 0.00 0.21 0.14 64 1007.3
20260507123101 51 47 0.0 2.0 0.00 0.21 0.14 59 1007.3
20260507122600 51 333 0.0 5.0 0.00 0.21 0.14 57 1007.0
20260507122059 51 248 0.0 5.0 0.00 0.21 0.14 54 1007.2
20260507121600 50 301 0.0 6.0 0.00 0.21 0.14 52 1007.3
20260507121058 50 25 0.0 6.0 0.00 0.21 0.14 52 1007.1
20260507120602 50 40 0.0 0.0 0.00 0.21 0.14 46 1007.0
20260507120558 50 328 0.0 0.0 0.00 0.21 0.14 49 1007.2
20260507115555 49 335 0.0 0.0 0.00 0.21 0.14 45 1007.2
20260507115056 49 335 0.0 0.0 0.00 0.21 0.14 45 1007.2
20260507114556 49 348 0.0 0.0 0.00 0.21 0.14 45 1007.2
20260507114055 49 243 0.0 0.0 0.00 0.21 0.14 43 1007.0
20260507113556 49 303 0.0 0.0 0.00 0.21 0.14 43 1006.9
20260507113055 49 321 0.0 0.0 0.00 0.21 0.14 42 1007.0
20260507112553 49 321 0.0 0.0 0.00 0.21 0.14 41 1006.9
20260507112053 49 320 0.0 0.0 0.00 0.21 0.14 42 1007.0
20260507111558 49 321 0.0 0.0 0.00 0.21 0.14 41 1006.9
20260507111554 49 321 0.0 0.0 0.00 0.21 0.14 41 1006.9
20260507111158 49 321 0.0 0.0 0.00 0.21 0.14 40 1006.7
20260507110054 49 321 0.0 0.0 0.00 0.21 0.14 41 1006.9
20260507105554 49 321 0.0 0.0 0.01 0.21 0.14 41 1006.9
20260507105053 49 320 0.0 0.0 0.02 0.21 0.14 42 1007.2
20260507104554 49 321 0.0 0.0 0.02 0.21 0.14 42 1007.2
20260507104054 49 321 0.0 0.0 0.04 0.21 0.14 42 1007.3
20260507103553 49 321 0.0 0.0 0.04 0.21 0.14 42 1007.2
20260507103053 49 321 0.0 0.0 0.05 0.21 0.14 43 1006.8
20260507102554 49 321 0.0 0.0 0.05 0.21 0.14 42 1006.6
20260507102051 49 321 0.0 0.0 0.06 0.21 0.14 43 1006.8
20260507101551 49 333 0.0 0.0 0.08 0.21 0.14 42 1006.9
20260507101054 49 333 0.0 0.0 0.08 0.21 0.14 42 1006.8
20260507101050 49 333 0.0 0.0 0.09 0.21 0.14 43 1006.7
20260507100049 49 333 0.0 0.0 0.10 0.21 0.14 43 1006.4
20260507095549 49 326 0.0 0.0 0.09 0.20 0.13 43 1006.4
20260507095050 49 325 0.0 0.0 0.08 0.19 0.13 44 1006.5
20260507094550 50 86 0.0 2.0 0.08 0.19 0.12 44 1006.6
20260507094049 50 8 0.0 2.0 0.07 0.17 0.10 43 1006.4
20260507093551 50 60 0.0 0.0 0.07 0.17 0.10 44 1006.4
20260507093049 50 314 0.0 0.0 0.06 0.16 0.10 44 1006.3
20260507092549 51 78 0.0 0.0 0.06 0.16 0.09 45 1006.3
20260507092055 51 259 0.0 2.0 0.04 0.13 0.07 45 1006.4
20260507092051 51 35 0.0 0.0 0.06 0.15 0.08 45 1006.3
20260507091050 51 322 0.0 4.0 0.04 0.13 0.06 45 1006.4
20260507090550 51 333 0.0 4.0 0.03 0.12 0.05 44 1006.7
20260507090050 51 110 0.0 0.0 0.03 0.11 0.04 44 1006.6
20260507085550 51 11 0.0 0.0 0.03 0.11 0.04 44 1006.6
20260507085050 51 1 0.0 0.0 0.03 0.11 0.04 42 1006.7
20260507084549 52 307 0.0 0.0 0.03 0.11 0.04 42 1006.5
20260507084049 52 313 0.0 0.0 0.03 0.10 0.03 43 1006.2
20260507083549 52 326 0.0 1.0 0.03 0.10 0.03 44 1006.2
20260507083050 52 342 0.0 1.0 0.03 0.10 0.03 45 1006.2
20260507082553 52 41 0.0 0.0 0.02 0.09 0.02 47 1005.9
20260507082549 52 317 0.0 0.0 0.03 0.10 0.03 46 1006.2
20260507081550 52 288 0.0 3.0 0.02 0.09 0.02 49 1006.1
20260507081051 53 288 0.0 3.0 0.02 0.09 0.02 50 1006.5
20260507080545 53 123 0.0 4.0 0.02 0.09 0.02 52 1006.2
20260507080045 53 319 0.0 4.0 0.01 0.08 0.01 54 1006.0
20260507075545 53 141 0.0 3.0 0.01 0.08 0.01 55 1006.0
20260507075046 53 332 0.0 4.0 0.01 0.08 0.01 58 1006.1
20260507074543 54 4 0.0 4.0 0.01 0.08 0.01 60 1006.2
20260507074041 54 293 0.0 5.0 0.00 0.07 0.00 61 1006.2
20260507073538 54 310 0.0 5.0 0.00 0.07 0.00 62 1006.0
20260507073142 54 299 0.0 0.0 0.00 0.07 0.00 60 1005.4
20260507073043 54 310 0.0 0.0 0.00 0.07 0.00 60 1005.4
20260507073039 54 347 0.0 0.0 0.00 0.07 0.00 61 1005.5
20260507072746 54 326 0.0 0.0 0.00 0.07 0.00 59 1005.5
20260507071033 54 27 0.0 1.0 0.00 0.07 0.00 59 1005.6
20260507070533 54 335 0.0 1.0 0.00 0.07 0.00 60 1005.5
20260507070033 54 259 0.0 5.0 0.00 0.07 0.00 60 1005.3
20260507065531 54 330 0.0 5.0 0.00 0.07 0.00 60 1005.6
20260507065035 55 174 0.0 3.0 0.00 0.07 0.00 60 1005.6
20260507065031 55 2 0.0 1.0 0.00 0.07 0.00 59 1005.5
20260507064033 55 44 0.0 3.0 0.00 0.07 0.00 62 1005.4
20260507064029 55 226 0.0 3.0 0.00 0.07 0.00 61 1005.5
20260507063033 55 37 0.0 5.0 0.00 0.07 0.00 59 1005.4
20260507063029 55 84 0.0 5.0 0.00 0.07 0.00 61 1005.5
20260507062029 56 303 0.0 6.0 0.00 0.07 0.00 55 1005.0
20260507061528 56 323 0.0 6.0 0.00 0.07 0.00 49 1005.1
20260507061028 56 68 0.0 4.0 0.00 0.07 0.00 47 1005.3
20260507060527 56 318 0.0 5.0 0.00 0.07 0.00 46 1005.5
20260507060027 56 262 0.0 5.0 0.00 0.07 0.00 46 1005.4
20260507055529 56 302 0.0 3.0 0.00 0.07 0.00 45 1005.4
20260507055027 57 336 0.0 0.0 0.00 0.07 0.00 45 1005.5
20260507054527 57 300 0.0 0.0 0.00 0.07 0.00 45 1005.9
20260507054026 57 60 0.0 0.0 0.00 0.07 0.00 45 1005.8
20260507053526 57 112 0.0 0.0 0.00 0.07 0.00 46 1005.8
20260507053026 57 80 0.0 2.0 0.00 0.07 0.00 45 1005.7
20260507052529 57 142 0.0 4.0 0.00 0.07 0.00 44 1005.4
20260507052524 57 300 0.0 2.0 0.00 0.07 0.00 46 1005.4
20260507052130 58 142 0.0 5.0 0.00 0.07 0.00 42 1005.4
20260507051630 58 258 0.0 5.0 0.00 0.07 0.00 39 1005.5
20260507050526 58 300 0.0 0.0 0.00 0.07 0.00 33 1005.4
20260507050025 58 300 0.0 0.0 0.00 0.07 0.00 33 1005.5
20260507045529 58 312 0.0 5.0 0.00 0.07 0.00 32 1005.4
20260507045525 58 333 0.0 5.0 0.00 0.07 0.00 31 1005.4
20260507044523 59 258 0.0 3.0 0.01 0.07 0.00 30 1005.2
20260507044022 59 233 0.0 0.0 0.01 0.07 0.00 30 1005.3
20260507043524 59 269 0.0 0.0 0.01 0.07 0.00 30 1005.2
20260507043520 59 30 0.0 0.0 0.01 0.07 0.00 30 1005.2
20260507042519 59 219 0.0 0.0 0.01 0.07 0.00 30 1005.3
20260507042019 59 221 0.0 0.0 0.01 0.07 0.00 30 1005.3
20260507041523 59 221 0.0 0.0 0.01 0.07 0.00 30 1005.5
20260507041519 59 221 0.0 0.0 0.01 0.07 0.00 30 1005.4
20260507040523 59 341 0.0 0.0 0.01 0.07 0.00 30 1005.7
20260507040519 59 189 0.0 0.0 0.01 0.07 0.00 30 1005.6
20260507035519 59 254 0.0 0.0 0.01 0.07 0.07 30 1005.6
20260507035019 59 225 0.0 0.0 0.01 0.07 0.07 30 1005.6
20260507034519 59 336 0.0 0.0 0.00 0.06 0.06 31 1005.4
20260507034017 59 255 0.0 6.0 0.00 0.06 0.06 31 1005.3
20260507033517 59 257 0.0 6.0 0.00 0.06 0.06 32 1005.4
20260507033021 59 73 0.0 0.0 0.00 0.06 0.06 32 1005.1
20260507033017 59 138 0.0 0.0 0.00 0.06 0.06 32 1005.2
20260507032016 59 233 0.0 0.0 0.00 0.06 0.06 32 1005.0
20260507031515 59 295 0.0 5.0 0.00 0.06 0.06 32 1005.0
20260507031015 59 138 0.0 5.0 0.00 0.06 0.06 32 1005.0
20260507030513 59 248 0.0 2.0 0.00 0.06 0.06 32 1004.7
20260507030013 59 115 0.0 2.0 0.00 0.06 0.06 32 1004.8
20260507025513 59 109 0.0 5.0 0.00 0.06 0.06 32 1004.9
20260507025011 59 216 0.0 5.0 0.00 0.06 0.06 32 1005.0
20260507024515 59 285 0.0 0.0 0.00 0.06 0.06 31 1005.0
20260507024511 59 233 0.0 0.0 0.00 0.06 0.06 31 1005.0
20260507023511 59 116 0.0 0.0 0.00 0.06 0.06 31 1005.1
20260507023011 59 153 0.0 0.0 0.00 0.06 0.06 31 1005.1
20260507022511 59 226 0.0 0.0 0.00 0.06 0.06 31 1005.1
20260507022016 59 124 0.0 0.0 0.00 0.06 0.06 31 1005.1
20260507022011 59 115 0.0 0.0 0.00 0.06 0.06 31 1005.1
20260507021011 59 110 0.0 2.0 0.00 0.06 0.06 31 1005.0
20260507020510 58 130 0.0 5.0 0.00 0.06 0.06 31 1005.1
20260507020013 58 118 0.0 0.0 0.00 0.06 0.06 31 1005.1
20260507020009 58 209 0.0 5.0 0.00 0.06 0.06 31 1005.0
20260507015009 58 142 0.0 0.0 0.00 0.06 0.06 31 1005.2
20260507014510 58 267 0.0 0.0 0.00 0.06 0.06 31 1005.3
20260507014009 58 280 0.0 3.0 0.00 0.06 0.06 31 1005.2
20260507013509 58 264 0.0 3.0 0.00 0.06 0.06 31 1005.3
20260507013009 58 224 1.0 6.0 0.00 0.06 0.06 31 1005.2
20260507012508 58 222 1.0 6.0 0.00 0.06 0.06 31 1005.3
20260507012009 58 122 1.0 6.0 0.00 0.06 0.06 31 1005.4
20260507011508 58 122 0.0 6.0 0.00 0.06 0.06 31 1005.4
20260507011007 58 66 0.0 6.0 0.00 0.06 0.06 31 1005.5
20260507010506 58 301 0.0 2.0 0.00 0.06 0.06 31 1005.5
20260507010007 58 131 0.0 0.0 0.00 0.06 0.06 31 1005.5
20260507005507 58 115 0.0 0.0 0.01 0.06 0.06 31 1005.5
20260507005007 57 144 0.0 0.0 0.01 0.06 0.06 30 1005.4
20260507004508 57 217 0.0 8.0 0.01 0.06 0.06 30 1005.4
20260507004007 57 120 0.0 8.0 0.01 0.06 0.06 30 1005.5
20260507003506 57 124 0.0 4.0 0.01 0.06 0.06 30 1005.6
20260507003007 57 244 1.0 4.0 0.01 0.06 0.06 30 1005.5
20260507002507 57 51 0.0 4.0 0.02 0.06 0.06 30 1005.5
20260507002005 57 121 0.0 5.0 0.02 0.06 0.06 30 1005.4
20260507001504 57 172 0.0 5.0 0.02 0.06 0.06 30 1005.3
20260507001005 57 180 0.0 4.0 0.02 0.06 0.06 30 1005.2
20260507000505 57 109 0.0 4.0 0.02 0.06 0.06 30 1005.2
20260507000006 57 180 1.0 7.0 0.02 0.06 0.06 30 1005.3
20260506235506 57 113 1.0 7.0 0.01 0.05 0.05 30 1005.4
20260506235002 57 115 1.0 6.0 0.01 0.05 0.05 30 1005.4
20260506234503 57 235 1.0 10.0 0.01 0.05 0.05 30 1005.4
20260506234003 57 186 1.0 10.0 0.02 0.05 0.05 30 1005.3
20260506233504 57 139 1.0 7.0 0.02 0.05 0.05 30 1005.2
20260506233002 57 141 0.0 5.0 0.02 0.05 0.05 30 1005.2
20260506232501 57 266 0.0 0.0 0.01 0.04 0.04 30 1005.2
20260506232000 57 141 0.0 0.0 0.01 0.04 0.04 30 1005.3
20260506231501 57 111 0.0 0.0 0.01 0.04 0.04 30 1005.4
20260506230959 57 134 0.0 0.0 0.01 0.04 0.04 30 1005.5
20260506230502 58 113 0.0 6.0 0.01 0.04 0.04 30 1005.4
20260506230458 57 132 0.0 3.0 0.01 0.04 0.04 30 1005.3
20260506225459 58 102 1.0 6.0 0.01 0.04 0.04 30 1005.3
20260506224957 58 84 0.0 6.0 0.01 0.04 0.04 31 1005.6
20260506224454 58 125 1.0 7.0 0.02 0.04 0.04 31 1005.5
20260506223955 58 162 1.0 7.0 0.01 0.03 0.03 31 1005.6
20260506223455 58 284 0.0 6.0 0.01 0.03 0.03 31 1005.8
20260506222952 58 135 1.0 6.0 0.01 0.03 0.03 32 1005.8
20260506222458 59 167 0.0 6.0 0.01 0.03 0.03 32 1005.8
20260506222454 59 82 1.0 6.0 0.01 0.03 0.03 32 1005.8
20260506221450 59 146 0.0 5.0 0.01 0.03 0.03 32 1005.8
20260506220956 59 96 1.0 7.0 0.01 0.03 0.03 33 1006.0
20260506220952 59 138 0.0 7.0 0.01 0.03 0.03 32 1005.9
20260506215948 60 127 1.0 7.0 0.01 0.03 0.03 33 1006.0
20260506215449 60 121 1.0 7.0 0.01 0.03 0.03 35 1006.1
20260506214947 60 130 1.0 8.0 0.01 0.03 0.03 36 1006.1
20260506214446 60 141 1.0 8.0 0.00 0.02 0.02 37 1006.2
20260506213946 60 113 0.0 5.0 0.00 0.02 0.02 38 1006.2
20260506213445 60 128 0.0 5.0 0.00 0.02 0.02 38 1006.2
20260506212942 60 95 1.0 6.0 0.00 0.02 0.02 39 1006.2
20260506212443 60 124 0.0 6.0 0.00 0.02 0.02 39 1006.3
20260506211943 60 103 0.0 1.0 0.00 0.02 0.02 39 1006.2
20260506211444 61 143 0.0 4.0 0.00 0.02 0.02 41 1006.3
20260506211440 60 150 0.0 1.0 0.00 0.02 0.02 40 1006.3
20260506210439 61 224 0.0 4.0 0.01 0.02 0.02 42 1006.2
20260506205942 61 32 0.0 4.0 0.01 0.02 0.02 43 1006.3
20260506205938 61 263 0.0 3.0 0.01 0.02 0.02 45 1006.4
20260506204937 61 248 0.0 2.0 0.01 0.02 0.02 47 1006.5
20260506204437 61 208 0.0 0.0 0.01 0.02 0.02 49 1006.4
20260506203936 61 115 0.0 3.0 0.02 0.02 0.02 52 1006.4
20260506203436 61 139 0.0 5.0 0.02 0.02 0.02 53 1006.5
20260506202937 61 132 0.0 5.0 0.02 0.02 0.02 54 1006.5
20260506202436 61 255 0.0 5.0 0.02 0.02 0.02 55 1006.3
20260506201936 61 101 0.0 1.0 0.02 0.02 0.02 55 1006.3
20260506201436 62 134 0.0 0.0 0.02 0.02 0.02 55 1006.1
20260506200937 62 135 0.0 0.0 0.02 0.02 0.02 55 1006.1
20260506200436 62 135 0.0 2.0 0.01 0.01 0.01 55 1006.2
20260506195937 62 153 0.0 2.0 0.01 0.01 0.01 56 1006.2
20260506195436 62 337 0.0 2.0 0.01 0.01 0.01 58 1006.4
20260506194937 62 141 0.0 2.0 0.01 0.01 0.01 59 1006.5
20260506194436 63 139 0.0 2.0 0.01 0.01 0.01 60 1006.6
20260506193936 63 121 0.0 2.0 0.00 0.00 0.00 61 1006.5
20260506193436 63 133 0.0 0.0 0.00 0.00 0.00 62 1006.6
20260506192938 64 159 0.0 0.0 0.00 0.00 0.00 63 1006.7
20260506192436 64 129 0.0 1.0 0.00 0.00 0.00 64 1006.6
20260506191938 64 134 0.0 3.0 0.00 0.00 0.00 65 1006.5
20260506191435 65 133 0.0 3.0 0.00 0.00 0.00 65 1006.4